STAR1 KBUF-KDTW

Flight info

Callsign STAR1
Flight time N/A
Altitude VFR/175
Route
Aircraft C172/L-DOV/C

Departure

Time 2026-05-05 20:24
Airport Buffalo Niagara International Airport (KBUF)

Arrival

Time N/A
Airport Detroit Metropolitan Wayne County Airport (KDTW)
Time Latitude Longitude Altitude Speed Heading
2026-05-05 20:12 42.93657 -78.73027 720 ft 0 kts 137°
2026-05-05 20:15 42.93657 -78.73026 720 ft 0 kts 143°
2026-05-05 20:16 42.93657 -78.73037 720 ft 2 kts 293°
2026-05-05 20:16 42.93663 -78.73046 720 ft 0 kts 313°
2026-05-05 20:17 42.93665 -78.73049 720 ft 3 kts 313°
2026-05-05 20:18 42.93711 -78.73089 720 ft 9 kts 356°
2026-05-05 20:18 42.93792 -78.73072 720 ft 16 kts 17°
2026-05-05 20:18 42.93894 -78.72949 721 ft 24 kts 40°
2026-05-05 20:18 42.94221 -78.72523 722 ft 46 kts 44°
2026-05-05 20:19 42.94308 -78.72404 723 ft 21 kts 43°
2026-05-05 20:19 42.94395 -78.72289 723 ft 10 kts 43°
2026-05-05 20:19 42.94426 -78.72251 723 ft 8 kts 43°
2026-05-05 20:19 42.94533 -78.72111 723 ft 47 kts 44°
2026-05-05 20:20 42.94708 -78.71875 724 ft 31 kts 43°
2026-05-05 20:20 42.94838 -78.71873 725 ft 17 kts 294°
2026-05-05 20:20 42.94825 -78.71935 724 ft 8 kts 242°
2026-05-05 20:20 42.94767 -78.72015 724 ft 17 kts 223°
2026-05-05 20:21 42.94666 -78.72012 724 ft 11 kts 129°
2026-05-05 20:21 42.94660 -78.72000 724 ft 0 kts 120°
2026-05-05 20:22 42.94657 -78.71992 724 ft 3 kts 116°
2026-05-05 20:22 42.94667 -78.71937 724 ft 9 kts 47°
2026-05-05 20:22 42.94760 -78.71824 724 ft 23 kts 24°
2026-05-05 20:22 42.94834 -78.71931 724 ft 17 kts 242°
2026-05-05 20:23 42.94807 -78.71980 724 ft 0 kts 222°
2026-05-05 20:23 42.94603 -78.72252 725 ft 144 kts 224°
2026-05-05 20:23 42.93169 -78.74129 1254 ft 368 kts 224°
2026-05-05 20:24 42.91328 -78.76004 1766 ft 306 kts 200°
2026-05-05 20:24 42.89791 -78.77136 2419 ft 232 kts 225°
2026-05-05 20:24 42.88743 -78.78545 2849 ft 199 kts 240°
2026-05-05 20:24 42.87504 -78.80192 3446 ft 248 kts 187°
2026-05-05 20:25 42.85364 -78.80566 3754 ft 344 kts 187°
2026-05-05 20:25 42.82799 -78.81521 4347 ft 383 kts 202°
2026-05-05 20:25 42.81228 -78.82437 4897 ft 347 kts 205°
2026-05-05 20:25 42.78769 -78.84612 5505 ft 349 kts 220°
2026-05-05 20:26 42.76580 -78.87722 6111 ft 555 kts 232°
2026-05-05 20:26 42.73935 -78.92511 6502 ft 595 kts 234°
2026-05-05 20:26 42.71746 -78.96916 6912 ft 602 kts 239°
2026-05-05 20:26 42.69706 -79.02025 7481 ft 705 kts 243°
2026-05-05 20:27 42.69243 -79.03268 7780 ft 726 kts 243°
2026-05-05 20:27 42.67739 -79.07620 8533 ft 669 kts 246°
2026-05-05 20:27 42.49974 -79.55255 8564 ft 9007 kts 254°
2026-05-05 20:27 42.30882 -80.09683 8564 ft 6369 kts 250°
2026-05-05 20:28 42.24842 -80.67724 8564 ft 6369 kts 279°
2026-05-05 20:28 42.40536 -81.29366 8564 ft 6368 kts 268°
2026-05-05 20:28 42.38710 -81.43569 8921 ft 608 kts 254°
2026-05-05 20:28 42.37932 -81.48588 8438 ft 484 kts 262°
2026-05-05 20:29 42.37520 -81.52720 8913 ft 409 kts 263°
2026-05-05 20:29 42.35008 -81.86197 9043 ft 6712 kts 257°
2026-05-05 20:29 42.31445 -82.08364 9013 ft 363 kts 271°
2026-05-05 20:29 42.34188 -82.47628 8991 ft 374 kts 275°
2026-05-05 20:30 42.33257 -82.51147 8991 ft 354 kts 244°
2026-05-05 20:30 42.32352 -82.54337 8700 ft 442 kts 253°
2026-05-05 20:30 42.31347 -82.59189 7961 ft 557 kts 253°
2026-05-05 20:30 42.30175 -82.63758 7445 ft 476 kts 253°
2026-05-05 20:31 42.29644 -82.66570 7007 ft 437 kts 258°
2026-05-05 20:31 42.29067 -82.71453 7104 ft 365 kts 269°
2026-05-05 20:31 42.29289 -82.74162 6650 ft 490 kts 279°
2026-05-05 20:31 42.29985 -82.79488 6605 ft 665 kts 278°
2026-05-05 20:32 42.29924 -82.85417 6844 ft 546 kts 269°
2026-05-05 20:32 42.32165 -82.87309 6453 ft 415 kts 14°
2026-05-05 20:32 42.34860 -82.86500 6056 ft 377 kts 11°
2026-05-05 20:32 42.35610 -82.86316 5913 ft 368 kts